Volver al catálogo

USA 416

ActivoMilitarVLEO
NORAD 61037·PAYLOAD·🇺🇸 United States

Lanzado Sep 6, 2024 desde Vandenberg Space Force Base

Loading…

Próximos Pases (próximas 24 horas)

TLE

ObsoletoSource: Mike McCants

Época: Sep 9, 2026, 19:17 UTC

1 61037U 24160S   26252.80364777 0.00000000  00000-0  00000-0 0    02
2 61037  70.0230 144.6700 0001000  91.8948 268.1052 14.96712958    09

Sigue USA 416 en tiempo real con AllMySat

Download on the App Store